EW3212 Weather Reports


time (UTC)temp
C
wind
direction
speed
KPH
gust
KPH
rain 1hr
cm
rain 24hr
cm
rain mn
cm
humidity
%
barometer
mb
20260509024104 13 265 0.0 0.0 0.00 0.10 0.10 80 1009.7
20260509020753 13 265 0.0 0.0 0.00 0.05 0.05 78 1009.5
20260509015726 13 265 0.0 0.0 0.00 0.05 0.05 78 1009.4
20260509014743 13 265 0.0 0.0 0.00 0.05 0.05 77 1009.3
20260509013750 14 265 0.0 0.0 0.00 0.05 0.05 76 1009.4
20260509012807 14 265 0.0 0.0 0.00 0.03 0.03 76 1009.7
20260509011801 14 265 0.0 0.0 0.00 0.03 0.03 74 1009.5
20260509010821 14 265 0.0 0.0 0.00 0.03 0.03 73 1009.3
20260509005757 14 265 0.0 0.0 0.00 0.03 0.03 73 1009.1
20260509004815 14 267 0.0 0.0 0.00 0.03 0.03 73 1009.0
20260509003755 14 275 0.0 0.0 0.00 0.03 0.03 75 1008.9
20260509001548 15 275 0.0 0.0 0.00 0.03 0.03 74 1008.7
20260509000605 15 284 0.0 0.0 0.00 0.03 0.03 74 1008.9
20260508235611 15 284 0.0 0.0 0.00 0.00 0.00 74 1008.9
20260508234624 15 284 0.0 0.0 0.00 0.00 0.00 73 1008.7
20260508233627 15 284 0.0 0.0 0.00 0.00 0.00 72 1008.6
20260508232627 15 284 0.0 0.0 0.00 0.00 0.00 72 1008.4
20260508231643 16 284 0.0 0.0 0.00 0.00 0.00 72 1008.5
20260508230703 16 284 0.0 0.0 0.00 0.00 0.00 72 1008.5
20260508225654 16 284 0.0 0.0 0.00 0.00 0.00 69 1008.6
20260508224623 16 284 0.0 0.0 0.00 0.00 0.00 65 1008.5
20260508223647 17 284 0.0 0.0 0.00 0.00 0.00 64 1008.4
20260508222625 17 284 0.0 0.0 0.00 0.00 0.00 61 1008.4
20260508221633 18 284 0.0 0.0 0.00 0.00 0.00 55 1008.5
20260508220640 18 284 0.0 0.0 0.00 0.00 0.00 49 1008.5
20260508215640 18 284 0.0 0.0 0.00 0.00 0.00 49 1008.4
20260508214659 18 284 0.0 0.0 0.00 0.00 0.00 47 1008.4
20260508213638 18 284 0.0 0.0 0.00 0.00 0.00 44 1008.4
20260508212624 18 284 0.0 0.0 0.00 0.00 0.00 43 1008.5
20260508211628 18 267 0.0 0.0 0.00 0.00 0.00 42 1008.6
20260508210618 18 270 0.0 0.0 0.00 0.00 0.00 42 1008.8
20260508204424 18 261 0.0 0.0 0.00 0.00 0.00 41 1008.9
20260508203444 19 218 0.0 0.0 0.00 0.00 0.00 39 1009.0
20260508202454 19 275 0.0 0.0 0.00 0.00 0.00 39 1009.2
20260508201428 19 213 0.0 0.0 0.00 0.00 0.00 38 1009.3
20260508200414 19 225 0.0 0.0 0.00 0.00 0.00 38 1009.4
20260508194257 20 259 0.0 16.1 0.00 0.00 0.00 35 1009.4
20260508193224 20 227 0.0 9.7 0.00 0.00 0.00 35 1009.6
20260508191142 20 246 0.0 12.9 0.00 0.00 0.00 38 1009.9
20260508190128 20 224 0.0 1.6 0.00 0.00 0.00 39 1010.0
20260508185140 20 265 0.0 3.2 0.00 0.00 0.00 38 1010.3
20260508184118 20 226 0.0 0.0 0.00 0.00 0.00 39 1010.2
20260508183130 19 269 0.0 0.0 0.00 0.00 0.00 42 1010.4
20260508182113 18 256 0.0 0.0 0.00 0.00 0.00 41 1010.5
20260508181117 19 231 0.0 0.0 0.00 0.00 0.00 42 1010.7
20260508180055 19 243 0.0 0.0 0.00 0.00 0.00 38 1010.8
20260508175105 20 244 0.0 0.0 0.00 0.00 0.00 38 1010.9
20260508174048 21 216 0.0 0.0 0.00 0.00 0.00 38 1011.0
20260508173015 20 216 0.0 0.0 0.00 0.00 0.00 40 1011.2
20260508172030 20 250 1.6 3.2 0.00 0.00 0.00 41 1011.2
20260508171003 20 223 0.0 6.4 0.00 0.00 0.00 40 1011.6
20260508165951 19 245 0.0 9.7 0.00 0.00 0.00 42 1011.8
20260508164919 18 267 0.0 11.3 0.00 0.00 0.00 42 1012.0
20260508163931 18 284 0.0 0.0 0.00 0.00 0.00 45 1012.2
20260508162936 18 236 0.0 0.0 0.00 0.00 0.00 44 1012.3
20260508161959 18 192 0.0 0.0 0.00 0.00 0.00 43 1012.3
20260508161004 18 225 0.0 0.0 0.00 0.00 0.00 43 1012.4
20260508160023 18 211 0.0 0.0 0.00 0.00 0.00 43 1012.6
20260508155032 18 229 0.0 1.6 0.00 0.00 0.00 45 1012.6
20260508144440 17 248 0.0 0.0 0.00 0.00 0.00 45 1013.1
20260508143434 17 206 0.0 0.0 0.00 0.00 0.00 46 1013.3
20260508142409 16 200 0.0 0.0 0.00 0.00 0.00 49 1013.3
20260508141405 16 267 0.0 0.0 0.00 0.00 0.00 50 1013.4
20260508134151 14 267 0.0 4.8 0.00 0.00 0.00 50 1013.6
20260508133124 13 301 0.0 4.8 0.00 0.00 0.00 52 1013.7
20260508132140 13 271 0.0 0.0 0.00 0.00 0.00 52 1013.5
20260508131137 13 277 0.0 0.0 0.00 0.00 0.00 51 1013.5
20260508130135 13 296 0.0 0.0 0.00 0.00 0.00 51 1013.5
20260508125140 12 270 0.0 0.0 0.00 0.00 0.00 53 1013.6
20260508123025 12 270 0.0 4.8 0.00 0.00 0.00 55 1013.6
20260508122016 12 261 0.0 0.0 0.00 0.00 0.00 57 1013.5
20260508121037 11 267 0.0 0.0 0.00 0.00 0.00 60 1013.4
20260508120033 10 267 0.0 0.0 0.00 0.00 0.00 61 1013.6
20260508113915 8 277 0.0 0.0 0.00 0.00 0.00 68 1013.2
20260508112908 8 277 0.0 0.0 0.00 0.00 0.00 69 1013.1
20260508110800 7 277 0.0 0.0 0.00 0.00 0.00 69 1012.9
20260508105819 8 277 0.0 0.0 0.00 0.00 0.00 69 1013.0
20260508102512 8 277 0.0 0.0 0.00 0.00 0.00 63 1012.8
20260508101450 8 277 0.0 0.0 0.00 0.00 0.00 62 1012.8
20260508095305 9 277 0.0 0.0 0.00 0.00 0.00 60 1012.8
20260508093101 8 269 0.0 0.0 0.00 0.00 0.00 60 1013.0
20260508090933 8 273 0.0 0.0 0.00 0.00 0.00 60 1012.8
20260508085913 8 273 0.0 0.0 0.00 0.00 0.00 60 1012.9
20260508084844 8 253 0.0 0.0 0.00 0.00 0.00 60 1013.0
20260508083831 8 253 0.0 0.0 0.00 0.00 0.00 60 1012.9
20260508082802 8 257 0.0 0.0 0.00 0.00 0.00 61 1013.0
20260508081802 8 234 0.0 0.0 0.00 0.00 0.00 61 1013.1
20260508080743 8 234 0.0 0.0 0.00 0.00 0.00 61 1012.9
20260508075754 8 234 0.0 0.0 0.00 0.00 0.00 61 1013.0
20260508072431 10 222 0.0 0.0 0.00 0.00 0.00 55 1013.1
20260508071430 10 222 0.0 0.0 0.00 0.00 0.00 55 1013.2
20260508070409 10 221 0.0 0.0 0.00 0.00 0.00 54 1013.2
20260508065353 10 278 0.0 0.0 0.00 0.00 0.00 54 1013.3
20260508064343 10 265 0.0 0.0 0.00 0.00 0.00 54 1013.3
20260508063340 10 265 0.0 0.0 0.00 0.00 0.00 54 1013.3
20260508062322 10 265 0.0 0.0 0.00 0.00 0.00 54 1013.3
20260508061321 10 269 0.0 0.0 0.00 0.00 0.00 54 1013.3
20260508060328 10 270 0.0 0.0 0.00 0.00 0.00 55 1013.3
20260508055315 10 239 0.0 0.0 0.00 0.00 0.00 57 1013.4
20260508054257 10 263 0.0 0.0 0.00 0.00 0.00 58 1013.4
20260508053308 10 263 0.0 0.0 0.00 0.00 0.00 58 1013.4
20260508052237 10 263 0.0 0.0 0.00 0.00 0.00 59 1013.4
20260508051224 10 263 0.0 0.0 0.00 0.00 0.00 59 1013.5
20260508050206 10 263 0.0 0.0 0.00 0.00 0.00 61 1013.5
20260508045213 10 263 0.0 0.0 0.00 0.00 0.00 62 1013.4
20260508044229 10 263 0.0 0.0 0.00 0.00 0.00 61 1013.4
20260508043218 10 263 0.0 0.0 0.00 0.00 0.00 62 1013.4
20260508042210 10 263 0.0 0.0 0.00 0.00 0.00 62 1013.4
20260508041218 10 263 0.0 0.0 0.00 0.00 0.00 60 1013.4
20260508040208 10 263 0.0 0.0 0.00 0.00 0.00 58 1013.4
20260508034129 10 263 0.0 0.0 0.00 0.00 0.00 61 1013.4
20260508033058 9 263 0.0 0.0 0.00 0.00 0.00 60 1013.5
20260508032059 9 263 0.0 0.0 0.00 0.00 0.00 61 1013.4
20260508031111 9 263 0.0 0.0 0.00 0.00 0.00 63 1013.4
20260508030118 9 263 0.0 0.0 0.00 0.00 0.00 65 1013.4
20260508025141 9 263 0.0 0.0 0.00 0.00 0.00 64 1013.3